Location: Lasqueti Island Observatory
(49.4855°N, 124.2726°W)
Time: 09:28:42
(UTC-07:00)

Daily predictions for brighter satellites

Satellite Brightness Start Highest point End
(mag) Time Altitude Azimuth Time Altitude Azimuth Time Altitude Azimuth
DEBRIS 4.3 21:46:33 10° SW 21:50:28 59° SE 22:04:37 10° ENE
COSMOS 2487 3.4 21:48:06 10° SSE 21:51:15 29° ESE 21:54:23 10° NE
SPOT 5 3.0 21:47:27 10° SE 21:51:37 49° ENE 21:55:54 10° N
Cosmos 1656 3.7 21:48:28 10° NNW 21:53:57 73° ENE 21:59:26 10° SE
Meteor 1-15 Rocket 4.4 21:49:32 10° NNW 21:55:09 75° W 22:00:41 10° S
Cosmos 1697 Rocket 3.0 21:49:57 10° NNW 21:55:30 57° NE 22:01:01 10° SE
ISS -3.9 21:54:29 10° WSW 21:57:47 80° SSE 22:01:05 10° ENE
SL-08 RB Rocket 4.1 21:55:03 10° SE 21:59:21 49° ENE 22:03:41 10° N
Cosmos 1452 Rocket 3.7 21:54:32 10° NNW 21:59:48 65° ENE 22:05:03 10° SE
Cosmos 2369 3.9 21:55:11 10° NNW 22:00:56 77° WSW 22:06:38 10° SSE
Cosmos 2341 Rocket 4.1 21:57:56 10° N 22:04:19 87° ENE 22:10:44 10° S
USA 245 2.5 22:02:04 10° SSE 22:04:20 43° ENE 22:06:30 10° N
SL-16 R/B 4.0 22:00:41 10° N 22:05:05 22° NE 22:09:29 10° E
Meteor 1-29 4.1 22:04:06 10° N 22:07:22 46° WNW 22:10:36 10° SW
Iridium 43 4.2 22:05:26 10° NNE 22:07:31 34° E 22:09:28 12° SSE
Cosmos 2058 Rocket 3.1 22:03:38 10° N 22:08:05 77° E 22:12:32 10° SSE
ERS-1 Rocket 3.3 22:03:13 10° S 22:08:13 66° WSW 22:13:15 10° NNW
ATLAS CENTAUR R/B 3.3 22:07:36 10° NNW 22:10:21 19° NNE 22:13:04 10° ENE
MetOp-A 4.3 22:05:18 10° SSE 22:10:40 82° WSW 22:16:04 10° NNW
Cosmos 2218 Rocket 4.2 22:06:17 10° N 22:12:20 56° ENE 22:18:24 10° SSE
Cosmos 1271 Rocket 4.4 22:09:35 10° NNE 22:12:41 22° ENE 22:15:47 10° ESE
Cosmos 1437 Rocket 3.9 22:11:12 10° NNW 22:14:51 42° W 22:18:33 10° SSW
Cosmos 1833 Rocket 3.1 22:09:45 10° S 22:14:58 41° ESE 22:20:14 10° NE
SPOT 1/Viking Rocket 3.7 22:10:58 10° SSE 22:16:04 64° ENE 22:21:11 10° N
MOS 1-B Rocket 4.3 22:11:25 10° S 22:17:22 77° WSW 22:24:16 10° NNW
YAOGAN 11 4.2 22:17:42 10° S 22:22:00 77° WSW 22:26:24 10° NNW
Cosmos 1515 3.8 22:21:21 10° SSW 22:25:09 78° W 22:29:00 10° N
Cosmos 1812 Rocket 4.3 22:22:52 10° N 22:27:07 40° ENE 22:30:39 14° SE
H-2A R/B 3.0 22:25:55 13° SE 22:29:40 39° ENE 22:33:52 10° N
Cosmos 1066 Rocket 4.2 22:31:33 10° S 22:37:02 67° E 22:42:42 10° NNE
Cosmos 2181 Rocket 4.1 22:31:04 10° S 22:37:25 85° W 22:43:44 10° N
Meteor 2-21 4.4 22:33:22 10° N 22:39:27 79° E 22:44:59 13° SSE
Cosmos 1626 Rocket 3.8 22:35:57 12° SSE 22:39:43 50° E 22:43:55 10° NNE
USA 229 DEB 3.9 22:33:39 10° NW 22:40:49 87° NE 22:47:09 15° SE
USA 229 3.9 22:33:45 10° NW 22:40:55 87° NE 22:47:15 15° SE
Tiangong 2 2.5 22:40:08 10° WSW 22:42:42 22° S 22:43:45 19° SSE
Cosmos 2360 Rocket 4.2 22:38:38 10° N 22:42:44 20° NE 22:46:48 10° E
Cosmos 1953 3.8 22:40:56 10° NNE 22:44:20 24° ENE 22:46:52 14° ESE
Meteor 2-21 Rocket 4.5 22:38:16 10° N 22:44:21 71° ENE 22:49:31 15° SSE
Cosmos 1980 Rocket 2.2 22:39:07 10° NNW 22:44:49 79° ENE 22:49:22 16° SSE
Cosmos 2228 3.7 22:41:04 10° NNW 22:45:15 52° W 22:49:23 10° S
ARGOS 3.8 22:44:19 10° S 22:49:36 53° W 22:54:56 10° NNW
USA 234 4.3 22:44:30 10° ENE 22:50:41 47° N 22:56:52 10° WNW
PSLV R/B 4.1 22:49:23 20° ESE 22:50:44 31° ENE 22:53:17 10° N
Cosmos 1766 3.3 22:46:52 10° N 22:50:47 66° ENE 22:53:28 19° SSE
Cosmos 2322 Rocket 3.0 22:51:12 10° NNW 22:56:38 42° NE 23:01:16 14° ESE
Landsat 7 3.9 22:57:46 16° S 23:01:37 77° WSW 23:06:24 10° NNW
H-2A R/B 2.4 22:59:16 13° S 23:03:39 58° W 23:08:43 10° NNW
Meteor 1-4 Rocket 3.6 23:00:43 10° NNW 23:04:07 40° W 23:06:54 14° SSW
Cosmos 1470 4.4 23:02:25 10° NNE 23:05:40 23° ENE 23:07:46 16° ESE
Lacrosse 5 rocket 2.0 23:02:07 10° NW 23:06:44 61° NNE 23:10:52 13° ESE
Meteor 1-21 4.3 23:06:06 15° S 23:10:45 65° E 23:16:29 10° NNE
Cosmos 2366 rocket 4.3 23:08:11 10° NNW 23:14:15 62° W 23:19:40 13° S
Cosmos 1602 Rocket 3.6 23:11:37 13° SSW 23:15:31 75° W 23:19:51 10° N
Terra 1.9 23:13:16 20° S 23:16:38 78° WSW 23:21:26 10° NNW
CZ-3A R/B 2.2 23:15:31 10° WSW 23:15:42 11° WSW 23:15:42 11° WSW
Cosmos 1805 3.2 23:15:22 10° N 23:19:17 76° E 23:21:22 26° SSE
Cosmos 389 Rocket 2.6 23:21:42 10° N 23:25:08 58° ENE 23:26:33 31° SE
Cosmos 2082 Rocket 2.7 23:20:34 10° SW 23:26:10 61° WNW 23:31:47 10° NNE
deb Chang Zheng 4 3.5 23:22:07 10° NNE 23:26:25 70° ESE 23:29:08 22° S
Cosmos 1269 Rocket 4.0 23:21:50 11° SSW 23:26:51 81° ESE 23:32:11 10° NNE
Cosmos 1758 3.3 23:23:41 10° N 23:27:41 74° E 23:29:40 28° SSE
DMSP B5D2-2 4.2 23:23:35 10° NNE 23:28:53 79° WNW 23:33:46 12° SSW
Cosmos 1331 Rocket 4.0 23:26:52 10° NNW 23:32:03 73° ENE 23:35:07 25° SE
Cosmos 1048 Rocket 4.0 23:28:34 11° SSW 23:33:36 87° WNW 23:38:51 10° NNE
ISS -3.1 23:31:09 10° W 23:34:25 56° N 23:37:41 10° E
Iridium 2 4.0 23:31:58 10° NNW 23:35:43 62° W 23:37:46 25° SSW
Cosmos 1110 Rocket 4.0 23:30:48 10° NNW 23:36:05 87° ENE 23:39:08 26° SSE
Cosmos 1697 Rocket 4.1 23:34:28 10° NW 23:39:08 27° WSW 23:43:07 13° SSW
CARTOSAT-1 4.4 23:38:18 19° SSW 23:41:01 43° W 23:45:09 10° NNW
Cosmos 1302 Rocket 4.5 23:36:10 10° NNW 23:41:21 54° ENE 23:44:33 23° SE
Spot 4 3.8 23:39:52 26° S 23:42:37 81° WSW 23:47:29 10° NNW
Lacrosse 5 2.7 23:43:44 27° SE 23:44:34 28° SE 23:48:52 10° ENE
Cosmos 1271 Rocket 3.9 23:45:14 10° NNW 23:48:50 36° W 23:50:59 20° SSW
ATLAS CENTAUR R/B 1.0 23:46:06 10° NW 23:49:47 76° SW 23:51:01 39° SSE
SL-16 R/B 2.2 23:44:18 10° NNW 23:50:00 90° WSW 23:53:16 27° SSE
Cosmos 1842 3.8 23:49:30 20° SSW 23:52:00 55° WNW 23:55:54 10° N
DELTA 2 DEB (DPAF) 4.2 23:50:05 29° S 23:52:22 73° WSW 23:56:52 10° NNW
SeaSat 1 3.4 23:50:22 17° ESE 23:53:52 42° NE 23:58:32 10° NNW
